This demonstration page uses our WeatherBlox Daily Observations layout. Learn more.

41.55636, -103.73856

Hourly Observations for August 8, 2018

Temp ( °F °C ) Dew Point ( °F °C ) Humidity (%) Winds ( mph kmh ) Pressure ( in mb ) Visibility ( mi km ) Precip ( " mm )
12:58 am 00:58 Clear 57 13.9 52 11 83 83 SSE 5 7 30.03 1017 10 16.09344 0 0
1:58 am 01:58 Mostly Clear 59 15.1 52 10.9 76 76 SSW 3 6 30.03 1017 10 16.09344 0 0
2:58 am 02:58 Partly Cloudy 59 15.1 51 10.7 75 75 S 7 11 30.03 1017 10 16.09344 0 0
3:58 am 03:58 Mostly Cloudy 61 15.9 55 12.7 81 81 SSW 3 6 30 1016 10 16.09344 0 0
4:58 am 04:58 Mostly Cloudy with Nearby Thunderstorms 61 16.2 55 12.7 80 80 SE 3 6 30 1016 10 16.09344 0 0
5:58 am 05:58 Cloudy with Heavy Thunderstorms 58 14.2 51 10.5 79 79 WSW 6 9 30.06 1018 1.5 2.414016 0.47 11.938
6:58 am 06:58 Mostly Cloudy 56 13.6 52 11.1 85 85 WSW 9 15 30.03 1017 10 16.09344 0.05 1.27
7:58 am 07:58 Mostly Sunny 59 15 54 12.3 84 84 SW 7 11 30.09 1019 10 16.09344 0 0
8:58 am 08:58 Mostly Sunny 65 18.3 55 13 71 71 W 8 13 30.09 1019 10 16.09344 0 0
9:58 am 09:58 Sunny 70 21.1 54 12.2 57 57 W 13 20 30.06 1018 10 16.09344 0 0
10:58 am 10:58 Sunny 75 23.8 57 14.1 55 55 W 13 20 30.09 1019 10 16.09344 0 0
11:58 am 11:58 Sunny 77 25.2 48 9 36 36 Calm 30.06 1018 10 16.09344 0 0
12:58 pm 12:58 Sunny 80 26.6 47 8.1 31 31 SW 10 17 30.06 1018 10 16.09344 0 0
1:58 pm 13:58 Mostly Cloudy 79 26.2 45 7.1 30 30 Calm 30.06 1018 10 16.09344 0 0
2:58 pm 14:58 Partly Cloudy 80 26.5 49 9.6 35 35 ESE 3 6 30.06 1018 10 16.09344 0 0
3:58 pm 15:58 Mostly Cloudy 78 25.3 44 6.7 30 30 SW 7 11 30.03 1017 10 16.09344 0 0
4:58 pm 16:58 Sunny 79 26.2 49 9.3 34 34 ESE 6 9 30.03 1017 10 16.09344 0 0
5:58 pm 17:58 Sunny 80 26.5 46 7.6 30 30 SSE 6 9 30.03 1017 10 16.09344 0 0
6:58 pm 18:58 Sunny 77 25.2 50 10 38 38 S 6 9 30.03 1017 10 16.09344 0 0
7:58 pm 19:58 Sunny 73 22.8 53 11.9 50 50 SSE 5 7 30.06 1018 10 16.09344 0 0
8:58 pm 20:58 Clear 72 22.4 53 11.4 50 50 S 5 7 30.06 1018 10 16.09344 0 0
9:58 pm 21:58 Clear 68 19.9 53 11.4 58 58 SSE 5 7 30.06 1018 10 16.09344 0 0
10:58 pm 22:58 Clear 64 17.8 53 11.7 68 68 SSW 5 7 30.09 1019 10 16.09344 0 0
11:58 pm 23:58 Clear 65 18.2 50 10.2 60 60 W 5 7 30.06 1018 10 16.09344 0 0

Powered by AerisWeather